Satellite: ARISSAT1 Catalog number: 37772 Epoch time: 12004.04884568 Element set: 479 Inclination: 051.6129 deg RA of node: 213.1240 deg Eccentricity: 0.0007478 Arg of perigee: 255.9283 deg Mean anomaly: 104.1611 deg Mean motion: 16.41716225 rev/day Decay rate: 1.3494171e-01 rev/day^2 Epoch rev: 2407 Checksum: 290
Satellite: JUGNU Catalog number: 37839 Epoch time: 12018.79217997 Element set: 71 Inclination: 019.9595 deg RA of node: 189.3324 deg Eccentricity: 0.0019762 Arg of perigee: 008.1532 deg Mean anomaly: 351.9086 deg Mean motion: 14.12017961 rev/day Decay rate: 6.19e-06 rev/day^2 Epoch rev: 1396 Checksum: 321
Satellite: SRMSAT Catalog number: 37841 Epoch time: 12018.85471115 Element set: 71 Inclination: 019.9714 deg RA of node: 190.8786 deg Eccentricity: 0.0011907 Arg of perigee: 338.7752 deg Mean anomaly: 021.2198 deg Mean motion: 14.10108963 rev/day Decay rate: 2.64e-06 rev/day^2 Epoch rev: 1394 Checksum: 292
Satellite: RAX-2 Catalog number: 37853 Epoch time: 12019.91531190 Element set: 74 Inclination: 101.7091 deg RA of node: 352.3333 deg Eccentricity: 0.0251791 Arg of perigee: 055.9848 deg Mean anomaly: 306.4999 deg Mean motion: 14.78488506 rev/day Decay rate: 5.266e-05 rev/day^2 Epoch rev: 1232 Checksum: 313
Satellite: AUBIESAT Catalog number: 37854 Epoch time: 12018.88838242 Element set: 75 Inclination: 101.7118 deg RA of node: 350.9164 deg Eccentricity: 0.0253649 Arg of perigee: 058.5157 deg Mean anomaly: 304.0576 deg Mean motion: 14.78718259 rev/day Decay rate: 5.084e-05 rev/day^2 Epoch rev: 1216 Checksum: 313
Satellite: HRBE Catalog number: 37855 Epoch time: 12019.83797826 Element set: 75 Inclination: 101.7131 deg RA of node: 352.2862 deg Eccentricity: 0.0253992 Arg of perigee: 055.6439 deg Mean anomaly: 306.8516 deg Mean motion: 14.78669272 rev/day Decay rate: 5.293e-05 rev/day^2 Epoch rev: 1230 Checksum: 321
/EX
participants (1)
-
Ray Hoad